When you browse on this site, cookies collect data to enhance your experience and personalize the content and advertising you see.
Visit our Privacy Policy to learn more. By continuing to use the site, you agree to this use of cookies and data.
  • In Netherlands
  • List of Countries
  • For 7 days
  • Water Temperature
  • Weather Map
  • Weather Widgets
  • user-avatar
    Login

    Hourly Weather Leicester

    Today, 24 August, Saturday

    Time Temperature Precipitation Wind Pressure Humidity
    00:00 +18°C° 0 mm 2 mps 759 mmHg 79%
    01:00 +17°C° 0 mm 2 mps 759 mmHg 79%
    02:00 +17°C° 0 mm 2 mps 759 mmHg 79%
    03:00 +16°C° 0 mm 1 mps 759 mmHg 79%
    04:00 +16°C° 0 mm 1 mps 759 mmHg 79%
    05:00 +16°C° 0 mm 1 mps 758 mmHg 79%
    06:00 +16°C° 0 mm 1 mps 758 mmHg 79%
    07:00 +17°C° 0 mm 2 mps 758 mmHg 72%
    08:00 +19°C° 0 mm 2 mps 758 mmHg 65%
    09:00 +21°C° 0 mm 2 mps 758 mmHg 58%
    10:00 +23°C° 0 mm 2 mps 758 mmHg 54%
    11:00 +25°C° 0 mm 3 mps 758 mmHg 49%
    12:00 +26°C° 0 mm 3 mps 758 mmHg 45%
    13:00 +27°C° 0 mm 3 mps 757 mmHg 45%
    14:00 +27°C° 0 mm 3 mps 757 mmHg 44%
    15:00 +28°C° 0 mm 3 mps 757 mmHg 44%
    16:00 +27°C° 0 mm 3 mps 757 mmHg 48%
    17:00 +26°C° 0 mm 2 mps 756 mmHg 53%
    18:00 +25°C° 0 mm 2 mps 756 mmHg 57%
    19:00 +24°C° 0 mm 2 mps 756 mmHg 60%
    20:00 +21°C° 0 mm 2 mps 756 mmHg 63%
    21:00 +21°C° 0 mm 1 mps 757 mmHg 66%
    22:00 +19°C° 0 mm 2 mps 757 mmHg 68%
    23:00 +19°C° 0 mm 2 mps 757 mmHg 70%

    Tomorrow, 25 August, Sunday

    Time Temperature Precipitation Wind Pressure Humidity
    00:00 +18°C° 0 mm 2 mps 756 mmHg 72%
    01:00 +18°C° 0 mm 2 mps 756 mmHg 73%
    02:00 +18°C° 0 mm 2 mps 756 mmHg 74%
    03:00 +17°C° 0 mm 2 mps 756 mmHg 75%
    04:00 +17°C° 0 mm 2 mps 756 mmHg 75%
    05:00 +17°C° 0 mm 2 mps 756 mmHg 76%
    06:00 +17°C° 0 mm 2 mps 756 mmHg 76%
    07:00 +19°C° 0 mm 2 mps 756 mmHg 71%
    08:00 +21°C° 0 mm 2 mps 757 mmHg 67%
    09:00 +23°C° 0 mm 2 mps 757 mmHg 62%
    10:00 +25°C° 0 mm 2 mps 757 mmHg 57%
    11:00 +27°C° 0 mm 2 mps 757 mmHg 52%
    12:00 +28°C° 0 mm 3 mps 757 mmHg 47%
    13:00 +29°C° 0 mm 3 mps 756 mmHg 45%
    14:00 +29°C° 0 mm 3 mps 756 mmHg 42%
    15:00 +30°C° 0 mm 3 mps 756 mmHg 40%
    16:00 +29°C° 0 mm 2 mps 756 mmHg 45%
    17:00 +28°C° 0 mm 2 mps 756 mmHg 49%
    18:00 +27°C° 0 mm 2 mps 756 mmHg 54%
    19:00 +26°C° 0 mm 2 mps 757 mmHg 58%
    20:00 +24°C° 0 mm 3 mps 757 mmHg 63%
    21:00 +21°C° 0 mm 3 mps 758 mmHg 68%
    22:00 +21°C° 0 mm 3 mps 757 mmHg 69%
    23:00 +20°C° 0 mm 3 mps 757 mmHg 70%

    Day after tomorrow, 26 August, Monday

    Time Temperature Precipitation Wind Pressure Humidity
    00:00 +20°C° 0 mm 2 mps 757 mmHg 72%
    01:00 +19°C° 0 mm 2 mps 757 mmHg 73%
    02:00 +19°C° 0 mm 2 mps 757 mmHg 75%
    03:00 +18°C° 0 mm 2 mps 757 mmHg 77%
    04:00 +18°C° 0 mm 2 mps 757 mmHg 77%
    05:00 +19°C° 0 mm 1 mps 757 mmHg 77%
    06:00 +19°C° 0 mm 1 mps 757 mmHg 78%
    07:00 +21°C° 0 mm 1 mps 757 mmHg 71%
    08:00 +23°C° 0 mm 2 mps 757 mmHg 65%
    09:00 +24°C° 0 mm 2 mps 757 mmHg 59%
    10:00 +26°C° 0 mm 2 mps 757 mmHg 55%
    11:00 +27°C° 0 mm 2 mps 757 mmHg 51%
    12:00 +29°C° 0 mm 3 mps 757 mmHg 47%
    13:00 +29°C° 0 mm 3 mps 756 mmHg 46%
    14:00 +30°C° 0 mm 3 mps 756 mmHg 46%
    15:00 +30°C° 0 mm 3 mps 756 mmHg 45%
    16:00 +29°C° 0 mm 2 mps 756 mmHg 49%
    17:00 +29°C° 0 mm 1 mps 755 mmHg 53%
    18:00 +28°C° 0 mm 1 mps 755 mmHg 57%
    19:00 +26°C° 0 mm 1 mps 755 mmHg 60%
    20:00 +25°C° 0 mm 1 mps 756 mmHg 63%
    21:00 +23°C° 0 mm 1 mps 756 mmHg 66%
    22:00 +23°C° 0 mm 1 mps 756 mmHg 67%
    23:00 +22°C° 0 mm 1 mps 755 mmHg 69%

    27 August, Tuesday

    Time Temperature Precipitation Wind Pressure Humidity
    00:00 +22°C° 0 mm 1 mps 755 mmHg 70%
    01:00 +21°C° 0 mm 1 mps 755 mmHg 71%
    02:00 +21°C° 0 mm 1 mps 755 mmHg 72%
    03:00 +21°C° 0 mm 1 mps 755 mmHg 73%
    04:00 +21°C° 0 mm 1 mps 755 mmHg 74%
    05:00 +21°C° 0 mm 1 mps 754 mmHg 75%
    06:00 +20°C° 0 mm 1 mps 754 mmHg 76%
    07:00 +22°C° 0 mm 1 mps 754 mmHg 71%
    08:00 +23°C° 0 mm 1 mps 754 mmHg 67%
    09:00 +24°C° 0 mm 1 mps 754 mmHg 62%
    10:00 +26°C° 0 mm 1 mps 754 mmHg 59%
    11:00 +27°C° 0 mm 1 mps 754 mmHg 56%
    12:00 +28°C° 0 mm 1 mps 754 mmHg 53%
    13:00 +28°C° 0 mm 2 mps 754 mmHg 54%
    14:00 +27°C° 0 mm 2 mps 754 mmHg 56%
    15:00 +27°C° 0 mm 2 mps 753 mmHg 58%
    16:00 +26°C° 0.3 mm 3 mps 753 mmHg 65%
    17:00 +24°C° 0.3 mm 3 mps 754 mmHg 72%
    18:00 +22°C° 0.3 mm 3 mps 754 mmHg 79%
    19:00 +21°C° 0.2 mm 3 mps 754 mmHg 78%
    20:00 +20°C° 0.2 mm 3 mps 754 mmHg 78%
    21:00 +19°C° 0.2 mm 2 mps 754 mmHg 77%
    22:00 +19°C° 0 mm 2 mps 754 mmHg 78%
    23:00 +19°C° 0 mm 2 mps 754 mmHg 80%

    28 August, Wednesday

    Time Temperature Precipitation Wind Pressure Humidity
    00:00 +19°C° 0 mm 2 mps 754 mmHg 81%
    01:00 +18°C° 0 mm 2 mps 754 mmHg 80%
    02:00 +18°C° 0 mm 2 mps 754 mmHg 79%
    03:00 +18°C° 0 mm 2 mps 754 mmHg 78%
    04:00 +18°C° 0 mm 2 mps 754 mmHg 78%
    05:00 +17°C° 0 mm 2 mps 754 mmHg 77%
    06:00 +18°C° 0 mm 1 mps 754 mmHg 77%
    07:00 +19°C° 0 mm 1 mps 754 mmHg 75%
    08:00 +19°C° 0 mm 1 mps 754 mmHg 73%
    09:00 +19°C° 0 mm 1 mps 755 mmHg 72%
    10:00 +20°C° 0 mm 2 mps 754 mmHg 66%
    11:00 +23°C° 0 mm 2 mps 754 mmHg 60%
    12:00 +24°C° 0 mm 3 mps 754 mmHg 54%
    13:00 +22°C° 0.2 mm 4 mps 754 mmHg 61%
    14:00 +21°C° 0.2 mm 5 mps 754 mmHg 68%
    15:00 +20°C° 0.2 mm 6 mps 754 mmHg 76%
    16:00 +20°C° 0.3 mm 5 mps 754 mmHg 78%
    17:00 +19°C° 0.3 mm 4 mps 754 mmHg 80%
    18:00 +19°C° 0.3 mm 4 mps 754 mmHg 82%
    19:00 +18°C° 0 mm 3 mps 755 mmHg 85%
    20:00 +17°C° 0 mm 3 mps 755 mmHg 87%
    21:00 +17°C° 0 mm 3 mps 755 mmHg 90%
    22:00 +16°C° 0 mm 2 mps 755 mmHg 91%
    23:00 +16°C° 0 mm 2 mps 755 mmHg 92%

    29 August, Thursday

    Time Temperature Precipitation Wind Pressure Humidity
    00:00 +15°C° 0 mm 2 mps 756 mmHg 93%
    01:00 +15°C° 0 mm 2 mps 755 mmHg 93%
    02:00 +15°C° 0 mm 1 mps 755 mmHg 93%
    03:00 +14°C° 0 mm 1 mps 755 mmHg 92%
    04:00 +14°C° 0 mm 1 mps 755 mmHg 92%
    05:00 +15°C° 0 mm 1 mps 755 mmHg 91%
    06:00 +14°C° 0 mm 0 mps 755 mmHg 91%
    07:00 +16°C° 0 mm 1 mps 756 mmHg 86%
    08:00 +18°C° 0 mm 1 mps 756 mmHg 82%
    09:00 +18°C° 0 mm 2 mps 756 mmHg 77%
    10:00 +18°C° 0 mm 2 mps 756 mmHg 72%
    11:00 +19°C° 0 mm 3 mps 756 mmHg 67%
    12:00 +20°C° 0 mm 3 mps 756 mmHg 62%
    13:00 +21°C° 0 mm 3 mps 755 mmHg 58%
    14:00 +21°C° 0 mm 3 mps 755 mmHg 55%
    15:00 +21°C° 0 mm 3 mps 755 mmHg 52%
    16:00 +20°C° 0 mm 3 mps 755 mmHg 55%
    17:00 +20°C° 0 mm 2 mps 755 mmHg 58%
    18:00 +19°C° 0 mm 2 mps 755 mmHg 61%
    19:00 +18°C° 0 mm 2 mps 755 mmHg 65%
    20:00 +16°C° 0 mm 2 mps 755 mmHg 68%
    21:00 +14°C° 0 mm 3 mps 756 mmHg 71%
    22:00 +14°C° 0 mm 3 mps 755 mmHg 75%
    23:00 +14°C° 0 mm 2 mps 755 mmHg 79%
    Show more